Location: *
(46.1006°N, 1.8394°E)
Time: 20:57:25
(UTC+00:00)

Resurs 1-3 - Pass Details

Date: 20 September 2019
Orbit: 630 x 632 km, 98.0° (Epoch: 17 October)

Event Time Altitude Azimuth Distance (km) Brightness Sun altitude
Exits shadow 19:42:46 42° 122° (ESE) 901 3.9 -19.0°
Maximum altitude 19:43:53 56° 72° (ENE) 757 3.7 -19.2°
Drops below altitude 10° 19:48:12 10° 355° (N) 2,025 6.5 -19.9°
Sets 19:50:26 0° 351° (N) 2,937 7.5 -20.2°
